DW8622 Weather Reports


Display with metric or nautical units.
time (UTC)temp
F
wind
direction
speed
MPH
gust
MPH
rain 1hr
in
rain 24hr
in
rain mn
in
humidity
%
barometer
mb
20260901061006 62 0 0.0 0.0 0.00 0.14 0.02 94 1017.9
20260901060505 62 0 0.0 0.0 0.00 0.14 0.02 95 1017.8
20260901060006 62 231 0.0 3.0 0.00 0.14 0.02 95 1017.8
20260901055006 62 205 0.0 3.0 0.00 0.16 0.02 95 1017.6
20260901054506 62 228 0.0 2.0 0.00 0.17 0.02 95 1017.6
20260901054006 62 225 0.0 1.0 0.00 0.17 0.02 95 1017.6
20260901053005 62 198 0.0 2.0 0.00 0.17 0.02 95 1017.5
20260901052506 62 198 0.0 2.0 0.00 0.17 0.02 95 1017.5
20260901052005 62 0 0.0 0.0 0.00 0.17 0.02 95 1017.4
20260901051506 62 206 0.0 3.0 0.00 0.17 0.02 95 1017.4
20260901051006 62 212 0.0 3.0 0.00 0.17 0.02 95 1017.3
20260901050505 62 213 0.0 3.0 0.00 0.17 0.02 95 1017.3
20260901050006 62 0 0.0 0.0 0.00 0.17 0.02 95 1017.3
20260901045006 62 223 1.0 4.0 0.00 0.17 0.02 95 1017.3
20260901044507 62 215 0.0 4.0 0.00 0.17 0.02 95 1017.3
20260901043506 62 206 1.0 4.0 0.00 0.17 0.02 95 1017.1
20260901043006 62 202 0.0 4.0 0.00 0.17 0.02 95 1017.1
20260901042506 62 206 0.0 4.0 0.00 0.17 0.02 95 1017.0
20260901042006 62 206 0.0 4.0 0.00 0.17 0.02 95 1017.0
20260901041006 62 209 0.0 3.0 0.00 0.17 0.02 95 1016.8
20260901040507 62 208 0.0 3.0 0.00 0.17 0.02 95 1016.9
20260901040006 62 200 0.0 3.0 0.00 0.17 0.02 95 1016.9
20260901035506 62 205 0.0 3.0 0.00 0.17 0.02 95 1016.9
20260901035006 62 209 0.0 3.0 0.00 0.17 0.02 95 1016.9
20260901034506 62 210 0.0 3.0 0.00 0.17 0.02 95 1016.9
20260901034006 62 0 0.0 0.0 0.00 0.17 0.02 95 1016.9
20260901033506 62 0 0.0 0.0 0.00 0.17 0.02 95 1016.8
20260901033005 62 218 0.0 3.0 0.00 0.17 0.02 95 1016.9
20260901032505 62 223 0.0 3.0 0.00 0.17 0.02 95 1016.9
20260901032006 62 222 0.0 4.0 0.00 0.17 0.02 95 1016.9
20260901031506 62 218 0.0 4.0 0.00 0.17 0.02 95 1016.9
20260901030506 62 221 0.0 4.0 0.00 0.17 0.02 95 1016.7
20260901025506 62 194 0.0 2.0 0.00 0.17 0.02 95 1016.7
20260901025006 62 195 0.0 3.0 0.00 0.17 0.02 95 1016.6
20260901023506 62 224 0.0 3.0 0.00 0.17 0.02 95 1016.5
20260901023006 62 0 0.0 0.0 0.00 0.17 0.02 95 1016.5
20260901022507 62 0 0.0 0.0 0.00 0.17 0.02 95 1016.5
20260901022006 61 0 0.0 0.0 0.00 0.17 0.02 95 1016.5
20260901021506 61 0 0.0 0.0 0.00 0.17 0.02 95 1016.6
20260901021006 61 0 0.0 0.0 0.00 0.17 0.02 95 1016.6
20260901020506 61 0 0.0 0.0 0.00 0.17 0.02 94 1016.6
20260901020006 61 0 0.0 0.0 0.00 0.17 0.02 94 1016.5
20260901015506 61 0 0.0 0.0 0.00 0.17 0.02 94 1016.5
20260901015006 61 0 0.0 0.0 0.00 0.17 0.02 95 1016.5
20260901014506 61 0 0.0 0.0 0.00 0.17 0.02 94 1016.5
20260901014006 61 0 0.0 0.0 0.00 0.17 0.02 95 1016.5
20260901013506 61 0 0.0 0.0 0.00 0.17 0.02 95 1016.5
20260901013006 61 0 0.0 0.0 0.00 0.17 0.02 95 1016.4
20260901012507 60 181 0.0 2.0 0.00 0.17 0.02 95 1016.4
20260901012006 60 181 0.0 2.0 0.00 0.17 0.02 94 1016.3
20260901010506 60 0 0.0 0.0 0.00 0.17 0.02 94 1016.4
20260901010006 60 0 0.0 0.0 0.00 0.17 0.02 94 1016.4
20260901005506 60 0 0.0 0.0 0.00 0.17 0.02 94 1016.5
20260901005005 60 0 0.0 0.0 0.00 0.17 0.02 94 1016.4
20260901004506 60 0 0.0 0.0 0.00 0.17 0.02 94 1016.4
20260901004006 60 0 0.0 0.0 0.00 0.17 0.02 94 1016.4
20260901003505 60 0 0.0 0.0 0.00 0.17 0.02 94 1016.3
20260901002506 60 0 0.0 0.0 0.00 0.17 0.02 93 1016.3
20260901002006 60 0 0.0 0.0 0.00 0.17 0.02 93 1016.3
20260901001506 60 0 0.0 0.0 0.00 0.17 0.02 93 1016.3
20260901001006 60 0 0.0 0.0 0.00 0.17 0.02 93 1016.3
20260901000506 60 205 0.0 4.0 0.00 0.17 0.02 93 1016.3
20260901000006 60 215 1.0 4.0 0.00 0.17 0.02 92 1016.2
20260831235505 60 216 1.0 4.0 0.00 0.17 0.02 92 1016.2
20260831235005 60 215 1.0 4.0 0.00 0.17 0.02 92 1016.2
20260831234006 60 0 0.0 0.0 0.00 0.17 0.02 92 1016.2
20260831233506 60 0 0.0 0.0 0.00 0.17 0.02 91 1016.2
20260831232506 60 208 0.0 6.0 0.02 0.17 0.02 91 1016.0
20260831232005 61 211 2.0 7.0 0.02 0.17 0.02 91 1016.0
20260831231506 61 216 2.0 7.0 0.02 0.17 0.02 91 1016.0
20260831231006 62 214 3.0 7.0 0.02 0.17 0.02 92 1016.0
20260831230506 63 209 2.0 7.0 0.02 0.17 0.02 92 1016.0
20260831230005 63 207 1.0 4.0 0.02 0.17 0.02 92 1015.9
20260831225506 63 0 0.0 0.0 0.02 0.17 0.02 92 1015.8
20260831225006 63 0 0.0 0.0 0.02 0.17 0.02 92 1015.9
20260831224505 64 0 0.0 0.0 0.02 0.17 0.02 91 1015.8
20260831224006 64 0 0.0 0.0 0.02 0.17 0.02 91 1015.7
20260831223505 64 237 0.0 1.0 0.01 0.17 0.01 90 1015.7
20260831222006 64 257 2.0 6.0 0.00 0.16 0.00 89 1015.8
20260831221506 64 261 3.0 7.0 0.00 0.16 0.00 90 1015.8
20260831221005 65 270 3.0 10.0 0.00 0.16 0.00 92 1015.7
20260831220505 65 268 3.0 10.0 0.00 0.16 0.00 92 1015.8
20260831220006 65 241 1.0 4.0 0.00 0.16 0.00 92 1015.6
20260831215507 65 231 2.0 7.0 0.00 0.16 0.16 91 1015.6
20260831215006 65 237 2.0 8.0 0.00 0.16 0.16 92 1015.4
20260831214506 65 237 2.0 8.0 0.00 0.16 0.16 91 1015.5
20260831214006 65 235 2.0 8.0 0.00 0.16 0.16 91 1015.5
20260831213506 65 239 2.0 8.0 0.00 0.16 0.16 91 1015.4
20260831213006 65 237 2.0 8.0 0.00 0.16 0.16 91 1015.4
20260831212006 65 248 3.0 7.0 0.00 0.16 0.16 90 1015.4
20260831211506 65 244 3.0 8.0 0.00 0.16 0.16 90 1015.4
20260831210505 65 241 1.0 9.0 0.00 0.16 0.16 88 1015.2
20260831210005 66 241 1.0 6.0 0.00 0.16 0.16 88 1015.1
20260831205506 66 249 2.0 8.0 0.00 0.16 0.16 87 1015.1
20260831205006 66 243 3.0 8.0 0.00 0.16 0.16 87 1015.1
20260831204506 66 234 3.0 7.0 0.00 0.16 0.16 86 1015.1
20260831204006 66 233 3.0 7.0 0.00 0.16 0.16 86 1015.1
20260831203506 66 247 3.0 10.0 0.00 0.16 0.16 86 1015.0
20260831203006 66 257 3.0 10.0 0.00 0.16 0.16 86 1015.0
20260831202506 66 259 3.0 8.0 0.00 0.16 0.16 86 1015.0
20260831202006 66 259 3.0 8.0 0.00 0.16 0.16 85 1014.9
20260831201506 66 254 3.0 9.0 0.00 0.16 0.16 85 1014.9
20260831201006 66 246 2.0 9.0 0.00 0.16 0.16 84 1014.9
20260831200506 66 253 3.0 9.0 0.00 0.16 0.16 84 1014.9
20260831195506 66 260 3.0 8.0 0.00 0.16 0.16 82 1014.8
20260831195006 66 258 3.0 7.0 0.00 0.16 0.16 82 1014.7
20260831194506 65 254 3.0 7.0 0.00 0.16 0.16 81 1014.6
20260831193506 65 255 3.0 8.0 0.00 0.16 0.16 81 1014.5
20260831193008 65 258 3.0 7.0 0.00 0.16 0.16 81 1014.6
20260831192507 65 241 1.0 7.0 0.00 0.16 0.16 80 1014.5
20260831191506 65 253 1.0 7.0 0.00 0.16 0.16 79 1014.4
20260831190506 65 248 1.0 7.0 0.00 0.16 0.16 78 1014.3
20260831190006 66 247 2.0 8.0 0.00 0.16 0.16 78 1014.2
20260831185506 66 251 3.0 9.0 0.00 0.16 0.16 77 1014.2
20260831185006 66 256 3.0 9.0 0.00 0.16 0.16 76 1014.2
20260831184506 66 255 4.0 9.0 0.00 0.16 0.16 76 1014.1
20260831184006 66 250 4.0 9.0 0.00 0.16 0.16 75 1014.0
20260831183507 67 258 5.0 13.0 0.00 0.16 0.16 74 1013.9
20260831182506 67 262 5.0 12.0 0.00 0.16 0.16 73 1013.8
20260831182006 67 271 6.0 13.0 0.00 0.16 0.16 72 1013.7
20260831181506 67 270 7.0 16.0 0.00 0.16 0.16 72 1013.6
20260831181006 67 263 7.0 16.0 0.00 0.16 0.16 73 1013.5
20260831180506 68 261 8.0 15.0 0.00 0.16 0.16 73 1013.4
20260831180006 68 262 8.0 14.0 0.00 0.16 0.16 73 1013.4
20260831175507 68 259 8.0 14.0 0.00 0.16 0.16 73 1013.3
20260831175006 68 262 8.0 16.0 0.00 0.16 0.16 73 1013.2
20260831174506 68 267 8.0 18.0 0.00 0.16 0.16 72 1013.2
20260831174007 68 268 9.0 19.0 0.00 0.16 0.16 72 1013.1
20260831173506 68 267 10.0 19.0 0.00 0.16 0.16 71 1013.0
20260831173007 68 267 9.0 18.0 0.00 0.16 0.16 72 1012.9
20260831172506 68 270 7.0 17.0 0.00 0.16 0.16 72 1013.0
20260831172006 68 270 7.0 16.0 0.00 0.16 0.16 73 1012.8
20260831171506 68 271 7.0 16.0 0.00 0.16 0.16 73 1012.8
20260831170506 68 263 5.0 11.0 0.00 0.16 0.16 74 1012.7
20260831170006 67 265 4.0 10.0 0.00 0.16 0.16 75 1012.7
20260831165506 67 261 5.0 11.0 0.00 0.16 0.16 75 1012.6
20260831165006 67 265 7.0 13.0 0.00 0.16 0.16 74 1012.5
20260831164506 68 264 8.0 15.0 0.00 0.16 0.16 74 1012.4
20260831164007 68 262 8.0 15.0 0.00 0.16 0.16 74 1012.5
20260831163506 68 261 9.0 20.0 0.00 0.16 0.16 73 1012.4
20260831163006 68 263 9.0 20.0 0.00 0.16 0.16 73 1012.3
20260831162506 68 264 9.0 17.0 0.00 0.16 0.16 72 1012.3
20260831161507 68 259 12.0 24.0 0.00 0.16 0.16 71 1012.3
20260831161006 68 255 13.0 24.0 0.00 0.16 0.16 70 1012.2
20260831160506 68 261 11.0 22.0 0.00 0.16 0.16 71 1012.2
20260831160006 68 267 10.0 18.0 0.00 0.16 0.16 71 1012.1
20260831155506 69 269 10.0 20.0 0.00 0.16 0.16 69 1012.0
20260831155007 69 264 11.0 22.0 0.00 0.16 0.16 68 1011.9
20260831154506 69 259 11.0 22.0 0.00 0.16 0.16 68 1011.8
20260831154006 69 262 10.0 21.0 0.00 0.16 0.16 67 1011.8
20260831153506 69 267 9.0 21.0 0.00 0.16 0.16 68 1011.8
20260831152506 70 268 8.0 19.0 0.00 0.16 0.16 65 1011.7
20260831152006 71 268 9.0 20.0 0.00 0.16 0.16 67 1011.6
20260831151507 71 261 10.0 20.0 0.00 0.16 0.16 66 1011.5
20260831151006 71 254 11.0 23.0 0.00 0.16 0.16 67 1011.5
20260831150007 69 262 13.0 23.0 0.00 0.16 0.16 69 1011.4
20260831145506 69 258 12.0 23.0 0.00 0.16 0.16 68 1011.3
20260831145006 70 261 11.0 20.0 0.00 0.16 0.16 68 1011.3
20260831144507 69 268 11.0 20.0 0.00 0.16 0.16 73 1011.2
20260831144006 68 269 11.0 20.0 0.00 0.16 0.16 70 1011.1
20260831143506 68 264 11.0 22.0 0.00 0.16 0.16 71 1011.1
20260831143006 69 267 10.0 22.0 0.00 0.16 0.16 70 1011.0
20260831142506 68 267 10.0 27.0 0.00 0.16 0.16 73 1010.9
20260831142006 68 266 12.0 27.0 0.00 0.16 0.16 71 1010.9
20260831141506 67 270 11.0 23.0 0.00 0.16 0.16 72 1010.8
20260831141007 68 271 11.0 22.0 0.00 0.16 0.16 71 1010.8
20260831140507 68 271 10.0 21.0 0.00 0.16 0.16 72 1010.7
20260831140006 67 270 10.0 19.0 0.00 0.16 0.16 74 1010.6
20260831135506 67 271 11.0 19.0 0.00 0.16 0.16 75 1010.5
20260831135007 66 272 10.0 19.0 0.00 0.16 0.16 76 1010.5
20260831134506 66 267 10.0 19.0 0.00 0.16 0.16 76 1010.4
20260831134007 66 262 12.0 29.0 0.00 0.16 0.16 76 1010.3
20260831133506 67 262 13.0 29.0 0.00 0.16 0.16 74 1010.3
20260831133006 69 266 12.0 23.0 0.00 0.16 0.16 65 1010.2
20260831132506 69 262 11.0 23.0 0.00 0.16 0.16 63 1010.1
20260831132007 71 254 11.0 21.0 0.00 0.16 0.16 66 1010.0
20260831131506 71 254 14.0 26.0 0.00 0.16 0.16 63 1009.9
20260831130506 71 252 14.0 24.0 0.00 0.16 0.16 64 1009.8
20260831130006 71 253 14.0 24.0 0.00 0.16 0.16 66 1009.7
20260831124506 67 262 11.0 19.0 0.00 0.16 0.16 72 1009.5
20260831124006 67 258 12.0 22.0 0.00 0.16 0.16 74 1009.5
20260831123507 67 252 12.0 22.0 0.00 0.16 0.16 73 1009.3
20260831123006 69 251 13.0 27.0 0.00 0.16 0.16 69 1009.2
20260831122506 71 255 13.0 27.0 0.00 0.16 0.16 66 1009.1
20260831122007 71 262 13.0 23.0 0.00 0.16 0.16 68 1009.0
20260831121506 70 263 13.0 25.0 0.00 0.16 0.16 68 1009.0
20260831121006 71 263 12.0 25.0 0.00 0.16 0.16 67 1008.9
20260831120506 70 262 13.0 24.0 0.00 0.16 0.16 68 1008.9
20260831115506 70 255 12.0 25.0 0.00 0.16 0.16 69 1008.8
20260831115006 70 254 12.0 25.0 0.00 0.16 0.16 71 1008.8
20260831114506 70 250 13.0 22.0 0.00 0.16 0.16 69 1008.7
20260831114006 68 251 13.0 26.0 0.00 0.16 0.16 72 1008.7
20260831113506 68 256 14.0 26.0 0.00 0.16 0.16 70 1008.6
20260831113007 68 256 13.0 31.0 0.00 0.16 0.16 70 1008.6
20260831112506 69 251 12.0 31.0 0.00 0.16 0.16 71 1008.5
20260831111506 68 257 12.0 22.0 0.00 0.16 0.16 76 1008.3
20260831111007 66 253 12.0 21.0 0.01 0.16 0.16 79 1008.3
20260831110006 66 251 11.0 20.0 0.07 0.16 0.16 80 1008.3
20260831105506 66 256 12.0 21.0 0.07 0.16 0.16 78 1008.3
20260831105006 66 241 12.0 23.0 0.07 0.16 0.16 81 1008.2
20260831104506 64 233 11.0 23.0 0.07 0.16 0.16 82 1008.2
20260831104007 64 244 10.0 20.0 0.07 0.16 0.16 84 1008.1
20260831103506 64 248 9.0 21.0 0.07 0.16 0.16 86 1008.2
20260831103006 64 247 10.0 21.0 0.07 0.16 0.16 85 1008.1
20260831102506 64 244 12.0 23.0 0.07 0.16 0.16 85 1008.0
20260831102006 63 253 9.0 23.0 0.07 0.16 0.16 88 1008.1
20260831101506 63 257 9.0 24.0 0.07 0.16 0.16 87 1008.0
20260831101006 64 238 11.0 24.0 0.06 0.15 0.15 82 1008.1
20260831100507 67 218 11.0 23.0 0.02 0.10 0.10 76 1008.1
20260831100006 69 212 9.0 21.0 0.00 0.09 0.09 72 1007.9
20260831095506 68 214 9.0 21.0 0.00 0.09 0.09 75 1007.9
20260831095007 68 213 10.0 21.0 0.00 0.09 0.09 73 1007.8
20260831094506 67 222 10.0 21.0 0.00 0.09 0.09 76 1007.9
20260831094006 66 228 9.0 21.0 0.00 0.09 0.09 77 1007.9
20260831092507 67 209 11.0 25.0 0.00 0.09 0.09 76 1007.9
20260831092006 67 215 11.0 24.0 0.00 0.09 0.09 77 1007.8
20260831090506 66 217 10.0 19.0 0.00 0.09 0.09 81 1007.6
20260831090006 65 215 11.0 23.0 0.00 0.09 0.09 81 1007.5
20260831085506 65 213 11.0 23.0 0.00 0.09 0.09 81 1007.5
20260831085006 65 214 10.0 25.0 0.00 0.09 0.09 82 1007.6
20260831084507 66 214 10.0 25.0 0.00 0.09 0.09 83 1007.5
20260831084006 65 216 9.0 20.0 0.00 0.09 0.09 84 1007.6
20260831082507 64 206 9.0 23.0 0.00 0.09 0.09 85 1007.3
20260831081507 64 215 10.0 22.0 0.02 0.09 0.09 86 1007.2
20260831081006 64 217 8.0 22.0 0.05 0.09 0.09 87 1007.3
20260831080006 64 201 7.0 17.0 0.05 0.09 0.09 88 1007.1
20260831075507 64 202 6.0 15.0 0.05 0.09 0.09 89 1007.2
20260831075006 63 205 6.0 15.0 0.05 0.09 0.09 91 1007.2
20260831074506 63 201 6.0 16.0 0.05 0.09 0.09 91 1007.0
20260831074006 63 199 7.0 17.0 0.05 0.09 0.09 91 1007.0
20260831073506 63 195 7.0 18.0 0.05 0.09 0.09 91 1007.1
20260831072506 62 191 6.0 17.0 0.05 0.09 0.09 92 1007.0
20260831072006 62 197 8.0 21.0 0.03 0.07 0.07 91 1007.2
20260831071506 62 197 8.0 21.0 0.03 0.06 0.06 89 1007.2
20260831071006 63 192 7.0 20.0 0.01 0.04 0.04 90 1007.2
20260831070506 62 193 6.0 15.0 0.01 0.04 0.04 90 1007.2
20260831070007 62 191 5.0 15.0 0.01 0.04 0.04 91 1007.3
20260831065506 62 195 5.0 14.0 0.01 0.04 0.04 91 1007.4
20260831065007 62 197 7.0 14.0 0.02 0.04 0.04 91 1007.4
20260831064507 62 196 7.0 14.0 0.04 0.04 0.04 91 1007.5
20260831064006 62 194 5.0 14.0 0.04 0.04 0.04 91 1007.6
20260831063007 62 208 5.0 13.0 0.04 0.04 0.04 91 1007.7
20260831062507 62 208 6.0 13.0 0.04 0.04 0.04 91 1007.8
20260831062006 62 203 6.0 16.0 0.04 0.04 0.04 91 1007.7
20260831061508 62 201 6.0 16.0 0.03 0.03 0.03 91 1007.7